This is the latest recevied weather packets stored in our database for station/object K4VEB. If no packets are shown the sender has not sent any weather packets the latest 10 day(s).
| Time | Temp. | Humidity | Pressure | Rain* | Wind** | Luminosity | Snow |
|---|---|---|---|---|---|---|---|
| 1777830452 | 23.89° C | 56% | 1017.9 hPa | 0 mm | - | 950 W/m² | - |
| 1777830151 | 24.44° C | 54% | 1018 hPa | 0 mm | - | 203 W/m² | - |
| 1777829850 | 24.44° C | 57% | 1018 hPa | 0 mm | - | 264 W/m² | - |
| 1777829547 | 23.89° C | 55% | 1018.2 hPa | 0 mm | - | 899 W/m² | - |
| 1777829244 | 23.33° C | 57% | 1018.3 hPa | 0 mm | - | 955 W/m² | - |
| 1777828941 | 23.89° C | 57% | 1018.3 hPa | 0 mm | - | 835 W/m² | - |
| 1777828637 | 23.89° C | 59% | 1018.3 hPa | 0 mm | - | 1008 W/m² | - |
| 1777828335 | 23.33° C | 62% | 1018.4 hPa | 0 mm | - | 1010 W/m² | - |
| 1777828031 | 23.89° C | 58% | 1018.3 hPa | 0 mm | - | 247 W/m² | - |
| 1777827728 | 23.33° C | 58% | 1018.4 hPa | 0 mm | - | 976 W/m² | - |
| 1777827426 | 22.78° C | 63% | 1018.4 hPa | 0 mm | - | 954 W/m² | - |
| 1777827122 | 23.33° C | 60% | 1018.4 hPa | 0 mm | - | 206 W/m² | - |
| 1777826818 | 23.33° C | 59% | 1018.6 hPa | 0 mm | - | 281 W/m² | - |
| 1777826515 | 23.33° C | 61% | 1018.5 hPa | 0 mm | - | 569 W/m² | - |
| 1777826212 | 23.33° C | 58% | 1018.7 hPa | 0 mm | - | 573 W/m² | - |
| 1777825910 | 23.33° C | 61% | 1018.7 hPa | 0 mm | - | 1022 W/m² | - |
| 1777825607 | 22.78° C | 61% | 1018.8 hPa | 0 mm | - | 903 W/m² | - |
| 1777825305 | 22.78° C | 62% | 1018.8 hPa | 0 mm | - | 849 W/m² | - |
| 1777825001 | 22.22° C | 66% | 1018.6 hPa | 0 mm | - | 840 W/m² | - |
| 1777824697 | 22.22° C | 65% | 1018.8 hPa | 0 mm | - | 333 W/m² | - |
| 1777824395 | 22.78° C | 64% | 1019 hPa | 0 mm | - | 274 W/m² | - |
| 1777824090 | 23.33° C | 65% | 1018.9 hPa | 0 mm | - | 919 W/m² | - |
| 1777823786 | 22.78° C | 64% | 1018.9 hPa | 0 mm | - | 719 W/m² | - |
| 1777823484 | 22.22° C | 67% | 1018.9 hPa | 0 mm | - | 959 W/m² | - |
| 1777823181 | 21.67° C | 67% | 1019.1 hPa | 0 mm | - | 923 W/m² | - |
* Rain latest hour (hover to see other rain measurements)
** Current wind speed in m/s (hover to see current wind gust speed)